This is the latest recevied weather packets stored in our database for station/object K1RFS. If no packets are shown the sender has not sent any weather packets the latest 10 day(s).
| Time | Temp. | Humidity | Pressure | Rain* | Wind** | Luminosity | Snow |
|---|---|---|---|---|---|---|---|
| 1787787500 | 32.78° C | 29% | 1005.8 hPa | 0 mm | - | 196 W/m² | - |
| 1787787201 | 33.33° C | 27% | 1005.7 hPa | 0 mm | - | 199 W/m² | - |
| 1787786900 | 33.89° C | 23% | 1005.8 hPa | 0 mm | - | 234 W/m² | - |
| 1787786595 | 35° C | 22% | 1005.8 hPa | 0 mm | - | 189 W/m² | - |
| 1787786290 | 33.89° C | 22% | 1005.7 hPa | 0 mm | - | 278 W/m² | - |
| 1787785986 | 33.89° C | 25% | 1005.7 hPa | 0 mm | - | 362 W/m² | - |
| 1787785681 | 32.78° C | 24% | 1006.1 hPa | 0 mm | - | 350 W/m² | - |
| 1787785376 | 32.78° C | 31% | 1006.1 hPa | 0 mm | - | 282 W/m² | - |
| 1787785075 | 32.78° C | 29% | 1005.7 hPa | 0 mm | - | 282 W/m² | - |
| 1787784770 | 32.22° C | 31% | 1006 hPa | 0 mm | - | 264 W/m² | - |
| 1787784469 | 31.67° C | 30% | 1006.2 hPa | 0 mm | - | 208 W/m² | - |
| 1787784169 | 31.67° C | 32% | 1006.1 hPa | 0 mm | - | 177 W/m² | - |
| 1787783865 | 30.56° C | 29% | 1006.2 hPa | 0 mm | - | 264 W/m² | - |
| 1787783561 | 29.44° C | 34% | 1006.3 hPa | 0 mm | - | 251 W/m² | - |
| 1787783255 | 28.89° C | 41% | 1006.3 hPa | 0 mm | - | 467 W/m² | - |
| 1787782950 | 27.78° C | 41% | 1006.3 hPa | 0 mm | - | 280 W/m² | - |
| 1787782650 | 26.67° C | 42% | 1006.3 hPa | 0 mm | - | 251 W/m² | - |
| 1787782345 | 25.56° C | 43% | 1006.5 hPa | 0 mm | - | 170 W/m² | - |
| 1787782041 | 25.56° C | 46% | 1006.8 hPa | 0 mm | - | 171 W/m² | - |
| 1787781736 | 25.56° C | 45% | 1006.9 hPa | 0 mm | - | 110 W/m² | - |
| 1787781433 | 26.11° C | 43% | 1006.8 hPa | 0 mm | - | 76 W/m² | - |
| 1787781128 | 27.78° C | 39% | 1007.2 hPa | 0 mm | - | 50 W/m² | - |
| 1787780827 | 28.33° C | 37% | 1007 hPa | 0 mm | - | 47 W/m² | - |
| 1787780526 | 28.89° C | 34% | 1007.3 hPa | 0 mm | - | 45 W/m² | - |
| 1787780222 | 28.89° C | 36% | 1007.3 hPa | 0 mm | - | 45 W/m² | - |
* Rain latest hour (hover to see other rain measurements)
** Current wind speed in m/s (hover to see current wind gust speed)